CDT,Max TemperatureF,Mean TemperatureF,Min TemperatureF,Max Dew PointF,MeanDew PointF,Min DewpointF,Max Humidity, Mean Humidity, Min Humidity, Max Sea Level PressureIn, Mean Sea Level PressureIn, Min Sea Level PressureIn, Max VisibilityMiles, Mean VisibilityMiles, Min VisibilityMiles, Max Wind SpeedMPH, Mean Wind SpeedMPH, Max Gust SpeedMPH,PrecipitationIn, CloudCover, Events, WindDirDegrees
2012-3-1,73,54,35,14,12,9,41,19,8,29.80,29.70,29.52,10,10,10,26,16,38,0.00,0,,242
2012-3-2,51,42,32,30,20,10,93,45,20,30.00,29.85,29.66,10,10,10,16,11,26,0.00,3,,351
2012-3-3,53,36,19,19,11,0,74,42,11,30.18,30.11,30.05,10,10,10,24,8,33,0.00,2,,274
2012-3-4,68,48,28,23,16,7,51,31,16,30.17,30.10,30.04,10,10,10,20,8,28,0.00,0,,242
2012-3-5,77,54,32,27,21,14,75,38,10,30.24,30.14,29.95,10,10,10,31,9,43,0.00,0,,214
2012-3-6,82,66,51,36,28,19,47,29,10,29.91,29.80,29.62,10,10,10,32,19,43,0.00,0,,206
2012-3-7,77,64,50,46,40,27,82,50,18,29.84,29.74,29.68,10,10,10,26,15,34,0.00,0,,219
2012-3-8,48,40,33,32,22,10,93,51,22,30.49,30.31,30.01,10,10,7,32,21,43,0.00,5,Rain,32
2012-3-9,59,46,33,28,15,3,75,37,11,30.56,30.50,30.37,10,10,10,15,4,21,0.00,4,,70
2012-3-10,44,40,37,41,32,21,100,71,43,30.37,30.25,30.07,10,8,2,13,6,,0.13,8,Rain,159
2012-3-11,62,48,35,41,38,36,100,76,39,30.03,29.85,29.73,10,10,10,15,8,22,0.00,5,,203
2012-3-12,78,61,44,34,27,18,66,37,10,29.96,29.87,29.74,10,10,10,16,11,,0.00,0,,237
2012-3-13,86,62,39,32,22,10,70,31,6,30.03,29.95,29.86,10,10,10,28,9,34,0.00,0,,229
2012-3-14,86,70,53,55,48,32,94,58,14,30.01,29.94,29.87,10,10,5,24,13,33,0.00,0,,218
2012-3-15,86,68,50,59,33,10,88,44,6,30.05,29.99,29.94,10,10,7,21,12,28,0.00,0,,242
2012-3-16,87,69,51,55,40,12,100,53,6,29.99,29.90,29.76,10,10,7,31,14,40,0.00,0,,209
2012-3-17,87,71,55,57,50,30,94,60,13,29.87,29.81,29.69,10,10,4,28,18,38,0.00,0,,198
2012-3-18,80,68,55,59,56,50,100,71,34,29.78,29.71,29.57,10,10,7,33,21,46,0.00,2,,180
2012-3-19,64,55,46,59,38,21,88,58,23,29.68,29.63,29.56,10,9,3,30,16,39,0.00,4,Rain,208
2012-3-20,55,42,30,41,33,25,100,73,36,29.87,29.74,29.62,10,10,7,18,7,23,0.00,4,Rain,97
2012-3-21,50,44,37,43,39,36,100,87,62,29.86,29.82,29.78,10,9,5,16,7,25,0.00,7,Rain,343
2012-3-22,55,46,37,45,39,36,100,80,47,29.94,29.80,29.55,10,9,3,22,10,28,0.00,7,Rain,337
2012-3-23,75,58,41,45,40,36,100,61,25,30.05,29.99,29.94,10,10,10,10,5,22,0.00,0,,233
2012-3-24,82,62,42,46,44,41,93,59,25,30.04,30.00,29.94,10,10,7,16,4,22,0.00,0,,184
2012-3-25,87,69,51,55,51,41,100,57,19,30.06,30.01,29.93,10,10,7,29,10,37,0.00,0,,167
2012-3-26,82,68,53,54,47,43,82,51,25,30.02,29.95,29.82,10,10,10,30,19,40,0.00,0,,189
2012-3-27,87,69,51,54,42,21,94,45,9,29.94,29.89,29.85,10,10,10,28,15,39,0.00,0,,215
2012-3-28,87,66,44,55,44,32,87,50,14,29.99,29.90,29.80,10,10,10,22,8,29,0.00,0,,217
2012-3-29,87,73,59,55,43,21,72,44,9,29.85,29.80,29.70,10,10,10,25,15,34,0.00,0,,218
2012-3-30,78,68,57,57,54,48,94,65,34,29.89,29.84,29.80,10,10,10,21,9,30,0.00,3,,87
2012-3-31,89,70,50,59,48,34,100,59,14,29.91,29.83,29.72,10,8,0,25,8,32,0.00,0,Fog,174